Scottsdale, AZ

6:22 PM MST on April 24, 2018 (GMT -0700)
Scottsdale

Weather History for KSDL - April, 2013

Change the Weather History Date:

Wednesday, April 3, 2013

  Actual Average Record
Temperature  
Mean Temperature 70 °F -  
Max Temperature 84 °F 72 °F 88 °F (2002)
Min Temperature 57 °F 51 °F 39 °F (1999)
Cooling Degree Days 6    
Growing Degree Days 20 (Base 50)    
Moisture  
Dew Point 32 °F    
Average Humidity 25    
Maximum Humidity 44    
Minimum Humidity 13    
Precipitation  
Precipitation 0.00 in - - ()
Sea Level Pressure  
Sea Level Pressure 29.93 in    
Wind  
Wind Speed 3 mph (SW)    
Max Wind Speed 9 mph    
Max Gust Speed -    
Visibility 10 miles    
Events      
Averages and records for this station are not official NWS values.
T = Trace of Precipitation, MM = Missing Value Source: NWS Daily Summary

Daily Weather History Graph

Daily Weather History Graph

Search for Another Location

Airport or City:

Astronomy

Apr. 03, 2013 Rise Set
Actual Time 6:12 AM MST 6:49 PM MST
Civil Twilight 5:47 AM MST 7:15 PM MST
Nautical Twilight 5:17 AM MST 7:44 PM MST
Astronomical Twilight 4:47 AM MST 8:14 PM MST
Moon 1:37 AM MST (4/3) 12:23 PM MST (4/3)
Length of Visible Light 13h 28m
Length of Day
12h 37m
Last Quarter, 43% of the Moon is Illuminated
Apr 3
Last Quarter
Apr 10
New
Apr 18
First Quarter
Apr 25
Full
May 2
Last Quarter

Hourly Weather History & Observations

Time (MST) Temp. Dew Point Humidity Pressure Visibility Wind Dir Wind Speed Gust Speed Precip Events Conditions
12:53 AM 64.9 °F 28.9 °F 26% 29.88 in 10.0 mi NW 4.6 mph - N/A   Clear
1:53 AM 62.1 °F 30.9 °F 31% 29.88 in 10.0 mi Calm Calm - N/A   Clear
2:53 AM 62.1 °F 30.9 °F 31% 29.88 in 10.0 mi West 3.5 mph - N/A   Clear
3:53 AM 60.1 °F 33.1 °F 36% 29.89 in 10.0 mi ESE 4.6 mph - N/A   Clear
4:53 AM 59.0 °F 34.0 °F 39% 29.91 in 10.0 mi Calm Calm - N/A   Clear
5:53 AM 57.9 °F 34.0 °F 41% 29.93 in 10.0 mi Calm Calm - N/A   Clear
6:53 AM 59.0 °F 37.0 °F 44% 29.95 in 10.0 mi Calm Calm - N/A   Clear
7:53 AM 63.0 °F 34.0 °F 34% 29.97 in 10.0 mi Calm Calm - N/A   Clear
8:53 AM 69.1 °F 35.1 °F 29% 29.99 in 10.0 mi Calm Calm - N/A   Clear
9:53 AM 73.9 °F 34.0 °F 23% 29.98 in 10.0 mi South 4.6 mph - N/A   Clear
10:53 AM 75.9 °F 32.0 °F 20% 29.97 in 10.0 mi West 4.6 mph - N/A   Clear
11:53 AM 79.0 °F 30.0 °F 17% 29.96 in 10.0 mi Variable 6.9 mph - N/A   Clear
12:53 PM 80.1 °F 28.0 °F 15% 29.95 in 10.0 mi Calm Calm - N/A   Clear
1:53 PM 82.0 °F 28.9 °F 14% 29.93 in 10.0 mi WSW 5.8 mph - N/A   Clear
2:53 PM 84.9 °F 28.0 °F 13% 29.91 in 10.0 mi Calm Calm - N/A   Clear
3:53 PM 84.0 °F 28.9 °F 14% 29.89 in 10.0 mi Variable 5.8 mph - N/A   Clear
4:53 PM 84.0 °F 28.9 °F 14% 29.88 in 10.0 mi SSW 8.1 mph - N/A   Clear
5:53 PM 82.9 °F 28.9 °F 14% 29.89 in 10.0 mi SW 9.2 mph - N/A   Clear
6:53 PM 81.0 °F 28.9 °F 15% 29.89 in 10.0 mi SW 4.6 mph - N/A   Clear
7:53 PM 77.0 °F 32.0 °F 19% 29.91 in 10.0 mi Calm Calm - N/A   Clear
8:53 PM 75.9 °F 32.0 °F 20% 29.93 in 10.0 mi Calm Calm - N/A   Clear
9:53 PM 73.0 °F 35.1 °F 25% 29.94 in 10.0 mi Calm Calm - N/A   Clear
10:53 PM 69.1 °F 36.0 °F 30% 29.95 in 10.0 mi Calm Calm - N/A   Clear
11:53 PM 66.9 °F 39.9 °F 37% 29.96 in 10.0 mi WSW 3.5 mph - N/A   Clear